Terminal Aerodrome Forecast
Issued by NWS

Home | Current Version | Previous Version | Graphics & Text | Print | Product List | Glossary On
Versions: 1 2 3 4 5 6 7 8 9 10 11 12 13 14 15 16 17 18 19 20 21 22 23 24 25 26 27 28 29 30 31 32 33 34 35 36 37 38 39 40 41 42 43 44 45 46 47 48 49 50
000
FTUS43 KLOT 300800 AAA
TAFGYY
TAF AMD
KGYY 300848Z 3009/3106 18008KT P6SM VCSH FEW040 OVC080
     FM301600 22012G20KT P6SM VCTS BKN035CB
      TEMPO 3016/3019 4SM -TSRA BR SCT030CB BKN035
     FM310100 22007KT P6SM BKN250=

USA.gov is the U.S. government's official web portal to all federal, state and local government web resources and services.